Location: Lynch Observatory
(39.9540°N, 75.1861°W)
Time: 19:37:44
(UTC-04:00)

FO-29 - Visible Passes

Search period start: 18 April 2024 00:00
Search period end: 28 April 2024 00:00
Orbit: 800 x 1321 km, 98.6° (Epoch: 18 April)

Date Brightness Start Highest point End Pass type
(mag) Time Alt. Az. Time Alt. Az. Time Alt. Az.
18 Apr 10.9 02:04:08 10° NNE 02:11:05 38° E 02:11:26 38° ESE visible
18 Apr 10.5 03:49:01 10° N 03:56:03 46° WNW 03:57:55 40° WSW visible
19 Apr 12.0 01:11:18 10° NE 01:15:24 15° E 01:15:44 15° E visible
19 Apr 10.0 02:53:37 10° NNE 03:01:13 82° ESE 03:02:13 70° S visible
19 Apr 11.3 04:40:01 10° NNW 04:45:26 22° WNW 04:48:42 17° W visible
20 Apr 11.0 01:59:03 10° NNE 02:05:58 36° E 02:06:30 36° ESE visible
20 Apr 10.4 03:43:48 10° N 03:50:59 49° WNW 03:53:00 41° WSW visible
21 Apr 12.0 01:06:30 10° ENE 01:10:13 14° E 01:10:49 14° E visible
21 Apr 10.0 02:48:27 10° NNE 02:56:08 77° ESE 02:57:17 66° SSE visible
21 Apr 11.3 04:34:42 10° NNW 04:40:23 24° WNW 04:43:46 18° W visible
22 Apr 11.1 01:53:59 10° NNE 02:00:50 34° E 02:01:34 33° ESE visible
22 Apr 10.3 03:38:35 10° N 03:45:56 53° WNW 03:48:04 42° WSW visible
22 Apr 11.9 05:28:04 10° NW 05:29:20 10° NW 05:30:36 10° WNW visible
23 Apr 12.1 01:01:49 10° ENE 01:05:01 13° E 01:05:52 13° E visible
23 Apr 10.1 02:43:19 10° NNE 02:51:02 73° ESE 02:52:21 62° SSE visible
23 Apr 11.2 04:29:24 10° N 04:35:20 26° WNW 04:38:50 19° W visible
24 Apr 11.2 01:48:57 10° NNE 01:55:42 32° E 01:56:38 31° ESE visible
24 Apr 10.3 03:33:24 10° N 03:40:52 56° WNW 03:43:07 43° WSW visible
24 Apr 11.9 05:22:05 10° NW 05:24:19 11° NW 05:26:34 10° WNW visible
25 Apr 12.2 00:57:16 10° ENE 00:59:50 12° E 01:00:55 11° E visible
25 Apr 10.2 02:38:12 10° NNE 02:45:57 69° E 02:47:24 58° SSE visible
25 Apr 11.2 04:24:09 10° N 04:30:18 27° WNW 04:33:52 19° W visible
26 Apr 11.3 01:43:55 10° NE 01:50:34 30° E 01:51:40 29° ESE visible
26 Apr 10.2 03:28:13 10° N 03:35:48 59° WNW 03:38:09 44° WSW visible
26 Apr 11.9 05:16:25 10° NNW 05:19:18 12° NW 05:22:12 10° WNW visible
27 Apr 12.2 00:53:04 10° ENE 00:54:38 11° E 00:55:56 10° E visible
27 Apr 10.3 02:33:05 10° NNE 02:40:51 65° E 02:42:25 55° SSE visible
27 Apr 11.1 04:18:54 10° N 04:25:16 29° WNW 04:28:54 20° W visible
